Location: Belfast
(54.5830°N, 5.9330°W)
Time: 12:59:16
(UTC+00:00)

ISS - Pass Details

Date: 13 December 2017
Orbit: 402 x 406 km, 51.6° (Epoch: 16 December)

Event Time Altitude Azimuth Distance (km) Brightness Sun altitude
Rises 18:35:10 0° 275° (W) 2,333 1.4 -21.1°
Reaches altitude 10° 18:37:55 10° 250° (WSW) 1,468 0.1 -21.5°
Maximum altitude 18:39:48 15° 215° (SW) 1,223 -0.9 -21.8°
Drops below altitude 10° 18:41:41 10° 180° (S) 1,461 -0.9 -22.1°
Enters shadow 18:41:45 10° 179° (S) 1,478 -0.9 -22.1°
